DW0542 Weather Reports


time (UTC)temp
F
wind
direction
speed
knots
gust
knots
rain 1hr
in
rain 24hr
in
rain mn
in
humidity
%
barometer
mb
20260505041508 51 98 0.0 3.5 0.00 0.00 0.00 76 1011.5
20260505040007 52 104 0.0 0.0 0.00 0.00 0.00 74 1011.4
20260505034533 52 104 0.0 0.0 0.00 0.00 0.00 73 1011.3
20260505033040 53 146 0.0 4.3 0.00 0.00 0.00 73 1011.1
20260505031528 53 184 0.0 4.3 0.00 0.00 0.00 72 1011.1
20260505030025 53 194 0.0 2.6 0.00 0.00 0.00 71 1011.1
20260505024547 54 201 0.0 6.1 0.00 0.00 0.00 70 1011.1
20260505023021 54 187 0.0 7.0 0.00 0.00 0.00 68 1011.2
20260505021536 55 153 0.9 7.8 0.00 0.00 0.00 67 1011.4
20260505020016 55 211 2.6 9.6 0.00 0.00 0.00 66 1011.4
20260505014518 55 189 0.0 8.7 0.00 0.00 0.00 65 1011.2
20260505013011 55 200 0.0 5.2 0.00 0.00 0.00 64 1011.2
20260505011507 56 95 0.0 7.0 0.00 0.00 0.00 61 1011.1
20260505010003 57 158 0.0 0.0 0.00 0.00 0.00 60 1010.7
20260505004605 57 192 1.7 9.6 0.00 0.00 0.00 60 1010.4
20260505003056 58 191 0.9 7.8 0.00 0.00 0.00 58 1010.2
20260505001523 59 179 0.0 6.1 0.00 0.00 0.00 55 1009.9
20260505000019 60 176 0.0 4.3 0.00 0.00 0.00 53 1009.5
20260504234544 61 149 0.0 4.3 0.00 0.00 0.00 50 1009.3
20260504233055 62 123 0.0 7.8 0.00 0.00 0.00 49 1009.1
20260504231508 63 171 0.0 7.8 0.00 0.00 0.00 48 1008.9
20260504230005 64 173 1.7 12.2 0.00 0.00 0.00 47 1008.8
20260504224502 64 178 0.0 12.2 0.00 0.00 0.00 47 1008.6
20260504223103 65 159 1.7 13.0 0.00 0.00 0.00 45 1008.5
20260504221605 65 185 4.3 13.0 0.00 0.00 0.00 45 1008.5
20260504220113 66 163 4.3 15.6 0.00 0.00 0.00 43 1008.4
20260504214521 67 166 4.3 15.6 0.00 0.00 0.00 42 1008.3
20260504213018 68 186 3.5 15.6 0.00 0.00 0.00 40 1008.3
20260504211514 67 180 0.9 9.6 0.00 0.00 0.00 40 1008.2
20260504210011 68 180 5.2 19.1 0.00 0.00 0.00 39 1008.2
20260504204619 68 180 5.2 13.9 0.00 0.00 0.00 37 1008.1
20260504203008 67 236 2.6 12.2 0.00 0.00 0.00 37 1008.2
20260504201536 67 198 8.7 14.8 0.00 0.00 0.00 36 1008.4
20260504200042 67 213 7.0 16.5 0.00 0.00 0.00 37 1008.3
20260504194537 67 199 7.8 16.5 0.00 0.00 0.00 35 1008.5
20260504193032 67 185 5.2 20.0 0.00 0.00 0.00 35 1008.5
20260504191530 67 220 7.8 18.2 0.00 0.00 0.00 35 1008.6
20260504190033 66 215 7.8 13.0 0.00 0.00 0.00 35 1008.7
20260504184532 66 225 6.1 13.9 0.00 0.00 0.00 36 1008.9
20260504183023 66 171 6.1 15.6 0.00 0.00 0.00 35 1009.0
20260504181523 66 194 5.2 17.4 0.00 0.00 0.00 34 1009.1
20260504180019 65 214 9.6 20.0 0.00 0.00 0.00 33 1009.4
20260504174515 65 249 5.2 22.6 0.00 0.00 0.00 35 1009.2
20260504173013 65 201 10.4 21.7 0.00 0.00 0.00 34 1009.6
20260504171511 64 169 9.6 23.5 0.00 0.00 0.00 34 1009.4
20260504160200 62 208 9.6 18.2 0.00 0.00 0.00 39 1010.4